N0ZO-13 Weather Reports


time (UTC)temp
C
wind
direction
speed
KPH
gust
KPH
rain 1hr
cm
rain 24hr
cm
rain mn
cm
humidity
%
barometer
mb
20260510202415 25 330 3.2 4.8 0.00 0.00 0.00 70 1011.2
20260510201425 25 264 4.8 9.7 0.00 0.00 0.00 73 1011.3
20260510200416 25 305 4.8 6.4 0.00 0.00 0.00 74 1011.4
20260510195426 24 337 4.8 11.3 0.00 0.00 0.00 74 1011.4
20260510194419 24 352 3.2 6.4 0.00 0.00 0.00 73 1011.4
20260510193427 24 14 6.4 11.3 0.00 0.00 0.00 74 1011.5
20260510192419 23 345 4.8 9.7 0.00 0.00 0.00 76 1011.4
20260510191427 23 360 6.4 9.7 0.00 0.00 0.00 74 1011.6
20260510190500 24 74 6.4 11.3 0.00 0.00 0.00 72 1011.7
20260510185428 24 42 0.0 1.6 0.00 0.00 0.00 76 1011.8
20260510184420 24 80 4.8 9.7 0.00 0.00 0.00 75 1012.0
20260510183428 25 32 4.8 9.7 0.00 0.00 0.00 74 1012.0
20260510182422 24 54 3.2 4.8 0.00 0.00 0.00 78 1012.1
20260510181428 23 58 4.8 11.3 0.00 0.00 0.00 78 1012.1
20260510180421 23 348 8.0 12.9 0.00 0.00 0.00 79 1012.2
20260510175428 23 293 4.8 9.7 0.00 0.00 0.00 81 1012.2
20260510174422 22 54 1.6 3.2 0.00 0.00 0.00 83 1012.5
20260510173436 22 358 4.8 4.8 0.00 0.00 0.00 84 1012.7
20260510172424 22 46 3.2 4.8 0.00 0.00 0.00 85 1012.5
20260510171436 22 313 1.6 3.2 0.00 0.00 0.00 87 1012.8
20260510170424 21 325 1.6 3.2 0.00 0.00 0.00 88 1012.8
20260510165220 21 88 1.6 1.6 0.00 0.00 0.00 89 1012.9
20260510164226 21 109 0.0 1.6 0.00 0.00 0.00 90 1013.1
20260510163216 21 154 1.6 3.2 0.00 0.00 0.00 92 1013.0
20260510162220 20 0.0 0.0 0.00 0.00 0.00 93 1012.9
20260510161226 20 75 1.6 1.6 0.00 0.00 0.00 92 1012.8
20260510160216 20 32 1.6 3.2 0.00 0.00 0.00 92 1012.8
20260510155239 20 68 3.2 4.8 0.00 0.00 0.00 92 1012.9
20260510154226 20 110 3.2 4.8 0.00 0.00 0.00 93 1013.0
20260510153217 20 49 3.2 3.2 0.00 0.00 0.00 93 1012.8
20260510152224 19 109 3.2 4.8 0.00 0.00 0.00 94 1012.9
20260510151217 19 104 3.2 4.8 0.00 0.00 0.00 94 1013.0
20260510150246 19 66 4.8 6.4 0.00 0.00 0.00 95 1013.0
20260510145240 19 30 1.6 4.8 0.00 0.00 0.00 96 1013.0
20260510144229 18 45 6.4 6.4 0.00 0.00 0.00 97 1012.7
20260510143220 18 49 3.2 4.8 0.00 0.00 0.00 98 1012.8
20260510142249 18 102 1.6 3.2 0.00 0.00 0.00 98 1012.9
20260510141221 18 59 3.2 4.8 0.00 0.00 0.00 99 1012.7
20260510140228 18 61 1.6 4.8 0.00 0.00 0.00 99 1012.7
20260510135220 17 28 0.0 1.6 0.00 0.00 0.00 99 1012.5
20260510134226 17 61 1.6 1.6 0.00 0.00 0.00 99 1012.5
20260510133217 17 48 1.6 3.2 0.00 0.00 0.00 99 1012.4
20260510132222 17 0.0 0.0 0.00 0.00 0.00 99 1012.5
20260510131228 17 0.0 0.0 0.00 0.00 0.00 99 1012.4
20260510130218 17 30 3.2 4.8 0.00 0.00 0.00 99 1012.2
20260510125226 16 41 1.6 3.2 0.00 0.00 0.00 99 1012.2
20260510124217 16 52 1.6 1.6 0.00 0.00 0.00 99 1011.9
20260510123226 16 0.0 0.0 0.00 0.00 0.00 99 1011.9
20260510122238 16 70 1.6 3.2 0.00 0.00 0.00 99 1011.7
20260510121226 16 0.0 0.0 0.00 0.00 0.00 99 1011.9
20260510120217 16 0.0 0.0 0.00 0.00 0.00 99 1011.6
20260510115246 16 0.0 0.0 0.00 0.00 0.00 99 1011.3
20260510114217 16 0.0 0.0 0.00 0.00 0.00 99 1011.3
20260510113224 16 0.0 0.0 0.00 0.00 0.00 99 1011.3
20260510112215 16 0.0 0.0 0.00 0.00 0.00 99 1011.0
20260510111223 16 0.0 0.0 0.00 0.00 0.00 99 1010.6
20260510110216 15 0.0 0.0 0.00 0.00 0.00 99 1010.4
20260510105222 15 0.0 0.0 0.00 0.00 0.00 99 1010.2
20260510104249 16 0.0 0.0 0.00 0.00 0.00 99 1009.9
20260510103231 16 51 1.6 3.2 0.00 0.00 0.00 99 1009.8
20260510102243 16 58 1.6 3.2 0.00 0.00 0.00 99 1009.7
20260510101216 16 0.0 0.0 0.00 0.00 0.00 99 1009.6
20260510100305 16 0.0 0.0 0.00 0.00 0.00 99 1009.4
20260510095216 16 0.0 0.0 0.00 0.00 0.00 99 1009.5
20260510094246 16 0.0 0.0 0.00 0.00 0.00 99 1009.3
20260510093240 16 100 1.6 3.2 0.00 0.00 0.00 99 1009.4
20260510092228 16 0.0 0.0 0.00 0.00 0.00 99 1009.1
20260510091241 16 65 0.0 1.6 0.00 0.00 0.00 99 1008.8
20260510090228 16 64 1.6 1.6 0.00 0.00 0.00 99 1008.8
20260510085221 16 64 1.6 3.2 0.00 0.03 0.00 99 1008.8
20260510084247 16 64 0.0 1.6 0.00 0.05 0.00 99 1008.6
20260510083220 16 64 1.6 3.2 0.00 0.10 0.00 98 1008.6
20260510082228 17 64 1.6 3.2 0.00 0.10 0.00 98 1008.3
20260510081221 17 64 1.6 1.6 0.00 0.10 0.00 98 1008.4
20260510080227 17 64 3.2 3.2 0.00 0.10 0.00 98 1008.4
20260510075219 17 64 1.6 1.6 0.00 0.10 0.00 98 1008.4
20260510074226 17 64 0.0 1.6 0.00 0.10 0.00 98 1008.3
20260510073218 17 0.0 0.0 0.00 0.10 0.00 98 1008.2
20260510072225 17 0.0 0.0 0.00 0.10 0.00 98 1008.3
20260510071218 17 0.0 0.0 0.00 0.10 0.00 98 1008.2
20260510070225 17 0.0 0.0 0.00 0.10 0.00 98 1008.4
20260510065237 16 0.0 0.0 0.00 0.10 0.00 98 1008.4
20260510064223 16 0.0 0.0 0.00 0.10 0.00 97 1008.6
20260510063256 16 0.0 0.0 0.00 0.10 0.00 97 1008.7
20260510062223 16 0.0 0.0 0.00 0.10 0.00 97 1008.8
20260510061217 16 0.0 0.0 0.00 0.10 0.00 96 1008.7
20260510060225 16 0.0 0.0 0.00 0.10 0.00 96 1009.0
20260510055218 16 0.0 0.0 0.00 0.10 0.00 96 1008.9
20260510054224 16 0.0 0.0 0.00 0.10 0.00 96 1009.1
20260510053227 17 0.0 0.0 0.00 0.10 0.00 96 1009.0
20260510052227 17 0.0 0.0 0.00 0.10 0.00 96 1008.9
20260510051229 17 0.0 0.0 0.00 0.10 0.00 96 1008.9
20260510050218 17 0.0 0.0 0.00 0.10 0.00 96 1009.0
20260510045221 17 0.0 0.0 0.00 0.10 0.10 95 1009.1
20260510044223 17 0.0 0.0 0.00 0.10 0.10 95 1009.2
20260510043225 17 0.0 0.0 0.00 0.10 0.10 95 1009.0
20260510042226 18 0.0 0.0 0.00 0.10 0.10 95 1009.1
20260510041227 18 0.0 0.0 0.00 0.10 0.10 95 1009.1
20260510040227 18 0.0 0.0 0.00 0.10 0.10 95 1009.3
20260510035231 18 0.0 0.0 0.00 0.10 0.10 95 1009.1
20260510034230 18 0.0 0.0 0.00 0.10 0.10 95 1009.4
20260510033216 18 153 1.6 1.6 0.00 0.10 0.10 95 1009.3
20260510032341 18 153 1.6 1.6 0.00 0.10 0.10 95 1009.4
20260510032217 18 153 0.0 1.6 0.00 0.10 0.10 95 1009.3
20260510031320 18 0.0 0.0 0.00 0.10 0.10 95 1009.5
20260510031241 18 0.0 0.0 0.00 0.10 0.10 95 1009.5
20260510030319 18 0.0 0.0 0.00 0.10 0.10 94 1009.4
20260510030222 19 0.0 0.0 0.00 0.10 0.10 94 1009.3
20260510025317 19 153 1.6 3.2 0.00 0.10 0.10 94 1009.2
20260510025220 19 153 1.6 1.6 0.00 0.10 0.10 94 1009.2
20260510024324 19 153 0.0 1.6 0.00 0.10 0.10 94 1009.4